This demonstration page uses our WeatherBlox Daily Observations layout. Learn more.

Left ArrowRight Arrow

36.17497, -115.13722

Hourly Observations for January 18, 2016

Temp ( °F °C ) Dew Point ( °F °C ) Humidity (%) Winds ( mph kmh ) Pressure ( in mb ) Visibility ( mi km ) Precip ( " mm )
12:53 am 00:53 Clear 44 6.7 32 0 63 63 Calm 30.18 1022 10 16.0934 0 0
1:53 am 01:53 Clear 44 6.7 32 0 63 63 SSW 3 6 30.16 1021 10 16.0934 0 0
2:53 am 02:53 Clear 43 6.1 32 0 65 65 Calm 30.16 1021 10 16.0934 0 0
3:53 am 03:53 Clear 42 5.6 32 0 68 68 NW 3 6 30.15 1021 10 16.0934 0 0
4:53 am 04:53 Clear 42 5.6 32 0 68 68 Calm 30.14 1021 10 16.0934 0 0
5:53 am 05:53 Clear 43 6.1 33 0.6 68 68 Calm 30.14 1021 10 16.0934 0 0
6:53 am 06:53 Sunny 42 5.6 33 0.6 71 71 NNW 3 6 30.14 1021 10 16.0934 0 0
7:53 am 07:53 Sunny 44 6.7 33 0.6 65 65 Calm 30.14 1021 10 16.0934 0 0
8:53 am 08:53 Sunny 46 7.8 33 0.6 61 61 Calm 30.15 1021 10 16.0934 0 0
9:53 am 09:53 Sunny 48 8.9 34 1.1 58 58 ESE 6 9 30.14 1021 10 16.0934 0 0
10:53 am 10:53 Sunny 51 10.6 34 1.1 52 52 Calm 30.14 1021 10 16.0934 0 0
11:53 am 11:53 Sunny 55 12.8 34 1.1 45 45 ESE 8 13 30.09 1019 10 16.0934 0 0
12:53 pm 12:53 Sunny 58 14.4 34 1.1 41 41 E 9 15 30.06 1018 10 16.0934 0 0
1:53 pm 13:53 Sunny 61 16.1 32 0 34 34 NE 7 11 30.06 1018 10 16.0934 0 0
2:53 pm 14:53 Sunny 61 16.1 33 0.6 35 35 ENE 6 9 30.07 1018 10 16.0934 0 0
3:53 pm 15:53 Sunny 60 15.6 33 0.6 36 36 ESE 5 7 30.09 1019 10 16.0934 0 0
4:53 pm 16:53 Clear 56 13.3 33 0.6 42 42 SE 3 6 30.1 1019 10 16.0934 0 0
5:53 pm 17:53 Clear 53 11.7 33 0.6 47 47 E 6 9 30.13 1020 10 16.0934 0 0
6:53 pm 18:53 Clear 51 10.6 33 0.6 50 50 W 6 9 30.15 1021 10 16.0934 0 0
7:53 pm 19:53 Clear 51 10.6 33 0.6 50 50 W 5 7 30.18 1022 10 16.0934 0 0
8:53 pm 20:53 Clear 55 12.8 32 0 42 42 NNW 14 22 30.19 1022 10 16.0934 0 0
9:53 pm 21:53 Clear 55 12.8 30 -1.1 38 38 NNW 9 15 30.21 1023 10 16.0934 0 0
10:53 pm 22:53 Clear 50 10 32 0 50 50 N 10 17 30.23 1024 10 16.0934 0 0
11:53 pm 23:53 Clear 48 8.9 32 0 54 54 Calm 30.23 1024 10 16.0934 0 0

Powered by AerisWeather